Printer-friendly version
Follow the MPC on Twitter Follow the MPC on Facebook The MPC blog
Minor Planet Center

MPEC 2007-F48 : 2007 FJ3

The following Minor Planet Electronic Circular may be linked-to from your own Web pages, but must not otherwise be redistributed electronically.

A form allowing access to any MPEC is at the bottom of this page.


Read MPEC 2007-F47 Read MPEC 2007-F49


M.P.E.C. 2007-F48                                Issued 2007 Mar. 21, 11:56 UT

     The Minor Planet Electronic Circulars contain information on unusual
         minor planets and routine data on comets.  They are published
   on behalf of Commission 20 of the International Astronomical Union by the
          Minor Planet Center, Smithsonian Astrophysical Observatory,
                          Cambridge, MA 02138, U.S.A.

             Prepared using the Tamkin Foundation Computer Network

                              MPC@CFA.HARVARD.EDU
          URL http://cfa-www.harvard.edu/iau/mpc.html  ISSN 1523-6714

                                   2007 FJ3

Observations:
     K07F03J* C2007 03 19.33969 11 21 01.80 +13 56 35.6          20.3 V EF048G96
     K07F03J  C2007 03 19.34465 11 21 01.51 +13 56 41.1          20.3 V EF048G96
     K07F03J  C2007 03 19.34923 11 21 01.18 +13 56 46.3          20.1 V EF048G96
     K07F03J  C2007 03 19.35385 11 21 00.90 +13 56 51.8          20.3 V EF048G96
     K07F03J  C2007 03 20.17924911 20 12.16 +14 12 19.4          21.2   EF048H55
     K07F03J  C2007 03 20.24932 11 20 07.94 +14 13 38.1          20.1 V EF048G96
     K07F03J  C2007 03 20.25567 11 20 07.54 +14 13 45.2          20.2 V EF048G96
     K07F03J  C2007 03 20.26198 11 20 07.15 +14 13 52.1          20.5 V EF048G96
     K07F03J  C2007 03 20.26835 11 20 06.79 +14 13 59.0          20.2 V EF048G96
     K07F03J  C2007 03 21.17558 11 19 13.54 +14 30 45.2          20.1 V EF048G96
     K07F03J  C2007 03 21.17952 11 19 13.33 +14 30 49.6          20.3 V EF048G96
     K07F03J  C2007 03 21.18357 11 19 13.08 +14 30 54.0          20.4 V EF048G96
     K07F03J  C2007 03 21.18752 11 19 12.82 +14 30 58.5          20.2 V EF048G96

Observer details:
G96 Mt. Lemmon Survey.  Observers S. M. Larson, A. R. Gibbs.  Measurers
    E. C. Beshore, E. J. Christensen, G. J. Garradd, A. R. Gibbs, A. D. Grauer,
    R. E. Hill, R. A. Kowalski, S. M. Larson, R. H. McNaught.  1.5-m reflector
    + CCD.
H55 Astronomical Research Observatory, Charleston.  Observer R. Holmes.
    0.81-m f/4.0 astrograph + CCD.

Orbital elements:
2007 FJ3
Epoch 2007 Mar. 1.0 TT = JDT 2454160.5                  MPC
M 143.34838              (2000.0)            P               Q
n   0.31600478     Peri.  207.43639     +0.94724674     -0.26222380
a   2.1347168      Node   164.05511     +0.20070217     +0.93360622
e   0.2600770      Incl.   42.13204     -0.24988449     -0.24416818
P   3.12           H   16.6           G   0.15
From 13 observations 2007 Mar. 19-21.  E-assumed.

Ephemeris:
2007 FJ3                 a,e,i = 2.13, 0.26, 42                  q = 1.5795
Date    TT    R. A. (2000) Decl.     Delta      r     Elong.  Phase     V
2007 03 21    11 19.39   +14 27.5    1.674    2.641   162.5     6.5    20.3
2007 03 31    11 10.29   +17 16.9    1.738    2.651   150.1    10.8    20.6
2007 04 10    11 03.08   +19 32.8    1.828    2.659   138.1    14.6    20.9
2007 04 20    10 58.33   +21 13.9    1.940    2.667   126.9    17.5    21.1
2007 04 30    10 56.27   +22 22.5    2.067    2.673   116.5    19.7    21.3
2007 05 10    10 56.82   +23 03.3    2.204    2.679   107.0    21.1    21.5
2007 05 20    10 59.77   +23 21.1    2.346    2.683    98.1    21.9    21.7
2007 05 30    11 04.84   +23 20.2    2.488    2.686    90.0    22.2    21.8
2007 06 09    11 11.71   +23 04.4    2.629    2.689    82.3    22.0    21.9
2007 06 19    11 20.10   +22 36.4    2.764    2.690    75.2    21.4    22.0

Timothy B. Spahr             (C) Copyright 2007 MPC           M.P.E.C. 2007-F48

Read MPEC 2007-F47 Read MPEC 2007-F49


MPEC number:

Enter an MPEC number in one of the following forms:

  • 1997-B01 (the full form)
  • J97B01 (the packed version of the full form)
  • B01 (the abbreviated form)

Valid HTML 4.01!